Wind_Speed
14 15 15 13 12 13 11 11 9 9 10 10 12 14 18 22 26 13 6 4 5 2 2 2 2 3 6 3 3 2 4 3 6 6 4 5 4 2 4 10 2 4 6 8 27
14 14 15 14 12 12 11 11 10 9 10 10 12 15 18 24 22 7 2 6 7 3 3 3 3 6 3 1 2 3 3 4 3 4 7 3 5 8 5 4 3 4 13 28 27
15 14 14 14 12 11 11 11 10 10 9 10 12 14 17 18 4 3 4 7 8 4 3 4 5 1 4 1 3 1 2 4 3 9 6 5 4 3 10 2 5 9 17 18 21
15 15 14 14 11 11 11 11 10 10 9 9 11 14 17 6 2 3 2 7 7 5 4 3 3 2 3 2 1 4 2 3 6 7 8 7 6 5 3 2 10 16 21 15 14
16 15 15 13 12 12 11 11 11 10 9 8 10 12 6 4 7 4 3 7 6 4 5 2 3 3 2 2 4 3 3 9 13 6 9 6 2 4 5 9 16 17 16 16 14
17 16 15 14 11 11 11 10 11 10 8 7 9 9 2 4 4 5 6 9 6 3 3 2 2 3 3 2 3 3 2 7 7 7 6 5 3 3 3 11 17 17 15 14 14
17 16 16 15 12 12 11 11 11 10 7 6 6 5 1 11 4 2 7 5 3 1 1 3 7 2 3 2 2 1 2 1 2 3 4 3 4 2 7 11 15 15 14 14 15
18 17 16 15 14 12 12 11 11 10 7 5 4 2 6 4 5 5 6 1 2 2 5 4 6 6 2 3 2 1 4 5 3 3 1 6 5 2 7 11 10 11 13 15 16
17 17 16 15 14 13 11 12 10 7 5 3 1 1 9 5 7 9 10 2 3 1 6 3 4 3 1 3 4 7 1 1 7 4 4 3 2 5 7 7 8 10 10 10 11
17 18 16 16 14 13 12 10 5 2 2 1 1 4 6 3 3 6 13 5 5 4 4 6 5 3 2 3 2 3 1 3 4 2 3 3 3 5 9 8 9 8 8 8 10
17 17 16 15 12 13 11 2 3 1 3 8 5 3 4 10 1 3 10 7 3 5 1 4 1 6 9 7 5 4 1 4 3 5 3 5 3 8 8 5 8 7 8 9 12
17 17 15 13 10 9 5 2 2 2 7 9 8 7 7 3 4 3 20 6 4 3 2 4 6 7 6 5 1 2 3 5 8 7 6 3 4 6 9 13 13 10 11 13 12
17 16 14 12 9 4 3 2 5 10 1 7 5 4 4 8 4 5 7 4 2 5 6 5 5 3 1 1 2 3 5 5 6 3 4 4 5 3 5 6 6 9 9 12 13
16 15 13 8 4 2 4 5 16 5 4 6 4 6 6 7 4 9 10 6 1 6 1 5 4 4 4 6 6 3 9 7 5 4 3 2 3 5 5 7 8 12 11 13 13
16 13 10 3 3 3 2 12 1 2 1 2 3 7 5 11 3 3 4 4 7 6 3 4 7 7 7 8 8 7 4 7 3 4 2 1 3 6 1 6 10 11 12 14 13
14 11 7 4 7 5 8 8 5 5 5 4 2 5 5 3 2 3 4 2 3 5 4 6 2 4 8 5 8 4 6 7 5 3 2 2 4 5 5 9 6 6 10 12 9
13 9 5 7 3 4 12 2 5 3 4 5 2 2 4 4 3 4 5 6 5 2 2 4 5 4 5 2 3 6 5 3 3 2 5 4 4 7 6 7 8 9 10 10 9
10 8 7 16 8 6 4 4 3 3 5 4 2 0 5 4 4 3 5 5 3 4 2 0 5 4 4 4 6 6 8 5 6 4 3 2 4 3 6 9 7 3 7 7 7
4 4 6 6 17 8 5 3 6 5 3 4 5 4 3 0 2 4 6 4 5 5 6 2 5 5 4 2 5 3 3 4 7 3 2 2 6 6 9 10 8 8 9 10 8
0 2 5 3 12 8 4 6 3 3 1 3 2 2 4 4 7 6 6 2 1 2 3 3 4 3 5 2 3 3 5 3 3 4 3 4 4 3 11 10 9 9 7 6 6
1 2 6 9 9 5 4 6 4 3 3 4 3 4 3 4 5 5 8 4 6 7 6 4 2 6 2 2 5 1 1 6 5 3 5 3 5 5 7 7 4 6 7 7 10
1 1 4 11 4 2 4 6 3 2 2 4 5 7 4 4 2 4 8 4 7 9 8 5 4 3 8 2 2 2 3 5 5 4 1 3 4 4 3 5 3 6 7 8 9
2 1 7 6 4 1 3 3 2 1 4 3 4 2 3 3 1 3 2 4 9 7 5 7 1 3 6 5 2 5 3 5 5 4 4 5 4 1 6 6 7 8 8 8 9
2 3 3 3 1 4 4 3 2 3 5 3 9 1 2 3 2 1 2 1 8 4 2 7 3 4 5 5 2 1 3 4 4 4 5 5 6 5 3 6 6 6 5 6 6
1 2 3 4 3 3 2 2 2 4 3 8 4 4 7 4 5 6 6 2 5 8 4 4 2 4 5 5 2 2 4 1 1 2 4 4 9 6 5 4 3 4 4 7 7
1 2 2 2 1 6 4 6 9 3 3 4 4 10 14 8 9 8 6 3 5 5 5 6 1 4 3 3 3 3 5 5 5 4 5 7 5 4 4 5 4 6 6 6 4
2 1 3 1 2 5 6 8 10 7 10 10 8 4 11 15 8 6 4 3 3 6 5 5 5 2 4 2 1 3 5 1 3 2 6 4 6 6 5 6 6 6 5 7 6
Wind_Direction
341 340 339 340 337 336 334 328 322 319 320 331 330 328 323 320 317 309 243 203 151 130 140 107 95 205 79 50 30 58 52 11 15 27 298 165 111 106 101 137 215 148 138 146 145
341 338 338 336 337 329 333 327 323 319 320 331 330 329 327 325 321 273 339 185 176 139 127 125 95 125 87 77 32 82 92 12 321 339 342 212 134 156 114 139 59 50 99 122 138
339 338 334 335 331 329 327 326 324 319 322 329 332 330 330 329 319 258 359 164 171 170 151 117 102 118 99 99 37 143 89 309 262 314 323 154 132 139 121 216 196 155 133 136 145
336 336 331 333 327 325 324 329 325 317 320 327 332 332 328 331 253 356 77 140 156 160 146 128 82 66 66 97 89 101 311 358 290 338 334 161 139 105 113 246 139 146 142 144 158
335 333 328 327 327 321 323 328 323 315 316 326 333 339 340 343 254 338 154 148 155 153 132 111 72 129 144 129 142 89 323 318 306 314 4 76 85 117 58 102 122 136 146 158 169
335 333 326 322 320 318 318 326 319 310 310 323 330 342 351 301 308 326 188 172 165 142 205 163 171 169 98 52 40 97 240 289 310 328 38 104 79 75 95 127 131 143 161 172 180
332 329 325 320 316 314 316 320 312 303 299 310 319 345 232 240 321 323 185 192 194 169 296 304 156 176 173 109 312 352 327 266 341 16 80 109 19 5 149 145 148 160 168 184 199
330 325 325 319 311 313 315 315 307 294 287 292 308 319 250 267 237 270 206 111 99 296 322 308 112 107 42 195 20 52 56 25 315 138 259 90 260 206 165 151 161 172 182 183 194
329 325 323 318 310 310 312 311 299 278 262 261 349 345 271 300 262 260 209 82 147 89 36 94 40 82 47 56 19 26 17 17 320 203 125 142 260 189 176 170 175 186 200 209 201
329 327 321 319 313 308 319 315 282 264 153 130 292 340 272 304 218 156 176 163 68 131 353 38 38 69 60 77 170 206 231 245 237 298 154 174 215 194 191 183 193 199 207 216 218
328 325 321 320 315 319 340 346 7 310 219 202 189 230 281 340 344 141 141 94 89 55 229 355 55 229 206 183 109 106 216 290 258 255 207 209 192 212 194 198 215 209 221 226 226
328 324 321 317 310 323 336 87 97 60 304 241 243 277 281 31 341 52 148 153 183 167 89 4 253 210 75 139 169 326 310 278 282 252 155 153 243 226 184 220 217 208 221 232 239
326 323 319 315 312 305 250 181 331 309 217 294 195 198 180 129 233 248 140 118 140 171 190 169 283 326 75 252 233 227 209 209 230 57 54 109 319 209 232 224 222 230 216 227 231
324 323 317 324 302 294 254 180 329 188 38 269 242 257 120 123 293 200 165 133 184 244 176 211 225 205 196 262 185 262 211 195 167 110 201 63 260 282 226 227 220 236 219 220 217
321 320 315 277 293 227 136 314 81 107 349 242 202 161 171 137 206 197 186 92 167 181 119 269 192 181 215 226 156 223 67 121 99 102 107 13 76 268 80 235 242 229 227 232 207
319 311 309 271 246 237 322 335 134 47 253 347 124 136 137 82 214 142 171 110 146 155 222 264 278 214 209 229 181 130 63 47 63 62 12 309 130 283 186 218 243 241 228 235 209
314 296 248 202 237 167 351 96 49 157 314 321 350 164 166 148 207 139 161 192 200 171 37 231 218 244 195 143 42 79 63 22 336 341 224 316 114 249 275 246 229 241 253 227 226
309 285 253 229 225 270 28 59 175 226 265 330 76 187 170 148 219 142 158 176 241 119 360 18 328 193 186 196 165 175 156 160 205 202 258 55 230 282 310 310 230 205 279 287 255
316 286 258 254 226 238 77 87 210 214 206 343 320 47 325 186 173 153 201 195 151 177 178 159 278 305 222 207 134 161 163 170 102 25 74 252 293 301 350 0 5 38 30 2 353
28 302 260 254 159 130 82 207 241 228 112 73 334 139 167 222 174 180 178 239 208 219 133 204 314 233 297 158 68 162 154 75 18 137 221 294 270 235 329 314 343 7 33 14 31
74 46 343 165 150 61 166 217 257 238 125 178 236 299 231 181 206 198 182 171 186 172 175 138 118 290 315 141 156 51 344 51 108 103 154 166 266 211 257 284 348 353 27 30 43
85 71 7 144 73 55 160 197 255 299 157 254 193 236 234 179 202 230 200 223 166 151 165 193 151 265 244 222 178 159 140 137 119 209 78 138 267 329 105 63 77 56 29 27 41
106 142 153 333 130 255 266 260 261 71 257 339 259 112 293 282 331 181 204 253 171 159 164 172 168 329 351 1 52 85 90 98 112 102 186 136 252 32 74 56 34 52 34 28 34
103 81 344 44 118 156 165 200 260 236 250 135 268 259 178 258 280 86 279 301 188 162 198 113 110 151 190 210 203 245 134 172 120 111 170 210 170 209 133 108 55 54 73 67 56
51 232 197 198 275 202 60 201 135 259 232 200 279 261 199 263 169 214 225 266 143 173 185 151 152 189 238 248 218 348 22 24 303 125 154 196 158 190 172 136 109 106 82 70 56
135 125 2 132 95 138 155 213 206 222 209 269 175 324 307 217 215 204 156 196 198 155 206 13 187 186 321 65 141 85 36 65 66 115 63 121 110 144 122 107 117 141 128 112 128
335 305 118 299 90 121 209 208 226 98 286 259 193 190 263 235 226 172 185 144 164 159 181 135 157 94 263 4 205 346 341 37 107 56 143 146 197 151 127 149 159 164 163 166 167
Height
788 786 784 782 781 779 777 776 774 773 772 770 769 766 763 759 754 753 751 747 746 747 748 749 749 750 750 753 753 756 785 794 780 777 768 755 763 756 757 765 764 766 772 773 782
786 785 784 781 780 779 776 775 774 772 771 769 767 765 762 757 751 749 744 744 745 746 747 747 750 750 758 758 759 771 790 783 767 761 763 757 757 761 766 769 773 773 772 777 784
785 784 782 781 779 777 776 774 773 771 770 769 766 764 761 757 754 744 742 743 744 745 747 747 749 750 760 759 765 770 783 769 760 755 752 754 760 756 767 778 770 777 778 781 787
784 782 781 779 778 776 775 773 772 770 769 768 766 763 759 758 772 742 743 744 746 746 746 747 750 758 763 768 765 775 765 762 756 753 753 755 753 762 761 763 759 769 773 781 788
783 780 779 778 777 775 774 772 771 769 768 767 765 763 760 760 752 743 744 745 746 747 746 748 754 759 769 766 765 772 768 759 751 751 747 748 758 762 767 762 764 771 778 783 788
782 779 777 776 775 774 773 771 770 768 767 766 765 763 763 768 743 744 744 745 746 747 746 747 752 752 763 766 766 766 768 761 751 751 750 763 763 760 769 766 771 776 780 784 787
780 777 775 775 774 773 771 769 768 767 766 765 764 764 763 753 742 742 744 746 747 748 746 746 749 753 759 767 760 763 772 765 759 754 759 760 776 777 766 768 773 778 781 783 785
778 775 773 773 772 771 769 768 766 765 765 764 764 764 760 742 741 741 745 747 748 749 747 746 749 752 759 759 764 774 776 794 767 759 759 766 797 774 768 770 777 778 779 781 783
776 773 771 771 770 769 767 765 764 763 763 763 764 765 759 742 741 740 743 746 747 748 748 745 748 759 761 776 788 787 800 795 784 758 763 770 787 770 768 772 777 777 778 777 780
774 771 770 770 769 767 765 763 762 763 763 763 765 770 748 743 738 739 743 746 749 751 751 754 763 774 777 786 810 799 801 793 793 769 765 775 779 771 769 771 775 776 777 777 776
773 770 768 768 767 766 764 763 767 767 763 754 751 751 744 741 739 740 743 748 753 760 773 766 779 788 775 772 771 779 788 792 779 764 771 778 776 775 770 774 775 777 777 776 772
771 768 767 767 766 765 764 764 765 768 768 745 747 747 744 746 751 743 744 756 761 775 775 779 787 764 759 765 775 781 791 793 775 761 770 776 778 770 771 766 765 770 772 769 767
769 767 766 766 765 765 764 763 764 763 771 749 742 742 741 745 753 749 744 751 764 775 778 784 769 753 765 771 780 783 790 788 784 768 767 776 787 776 766 764 763 761 760 761 762
767 765 764 765 769 764 762 762 761 761 786 760 746 735 737 744 759 736 739 749 764 772 771 778 764 763 770 775 773 793 761 765 772 786 808 779 822 786 774 770 764 757 756 755 755
765 763 763 765 765 763 762 761 760 762 814 747 742 726 731 743 750 745 736 744 767 769 770 769 767 770 773 765 757 769 751 765 772 791 794 795 812 792 774 777 766 755 749 744 747
762 761 762 765 764 760 759 759 762 796 808 756 736 742 745 749 749 741 741 736 741 762 766 763 746 753 753 741 744 743 760 774 787 802 822 801 806 801 786 768 755 746 743 738 739
759 759 761 762 760 758 759 761 799 807 761 761 754 744 747 755 752 748 753 759 768 784 789 776 766 745 740 752 745 758 779 815 824 827 825 807 806 791 761 750 747 741 735 733 730
756 756 757 756 757 759 759 776 804 779 778 753 755 753 755 749 750 749 758 769 756 766 782 789 786 747 734 740 755 766 776 812 828 835 821 800 809 781 757 747 739 731 733 731 731
754 754 754 751 754 759 767 794 786 775 761 766 757 764 762 753 754 753 758 760 754 756 780 788 778 736 731 729 737 762 780 770 815 821 823 814 791 765 756 751 746 743 741 742 736
754 755 751 749 751 756 777 792 771 756 754 763 770 753 768 762 765 759 763 746 750 749 750 764 786 748 737 730 737 748 757 790 804 824 822 819 807 802 780 769 758 757 753 747 739
755 757 751 750 752 762 787 784 764 748 750 768 769 766 754 756 758 761 758 749 743 752 751 759 775 765 745 747 756 761 772 791 797 812 827 832 814 783 780 773 765 763 754 752 747
756 762 752 754 767 782 783 772 753 752 754 755 757 761 754 751 755 756 754 745 732 739 757 753 776 785 763 736 733 741 752 775 801 805 824 820 810 773 769 764 763 762 759 755 751
759 760 755 755 776 779 766 762 751 753 752 744 750 744 742 747 756 751 747 728 728 735 746 751 776 792 771 756 741 750 755 774 786 795 812 814 810 769 766 766 765 764 763 762 758
758 767 762 760 766 764 765 764 758 746 747 737 740 737 747 755 751 753 747 733 729 731 736 736 769 775 798 773 761 755 751 759 767 793 805 805 792 778 772 771 771 770 769 767 765
757 759 755 770 767 762 758 762 761 756 739 738 740 736 746 759 757 758 749 739 731 732 737 740 763 767 761 759 755 756 760 753 755 769 771 776 787 780 776 775 771 769 769 769 768
756 755 756 760 758 763 768 766 760 748 745 742 745 731 727 749 743 749 737 740 737 739 740 742 762 764 758 748 750 765 761 759 765 773 780 780 780 769 771 771 773 772 771 771 770
754 752 753 760 762 765 767 756 749 742 736 726 733 742 739 727 719 719 720 726 723 733 745 751 762 769 776 767 759 773 768 764 767 766 772 780 773 769 774 775 775 774 772 772 770